Columbia Falls, MT

10:56 PM MDT on September 27, 2016 (GMT -0600)
Glacier Park International

Weather History for KGPI - June, 2013

Change the Weather History Date:

Saturday, June 29, 2013

  Actual Average Record
Temperature  
Mean Temperature 70 °F 61 °F  
Max Temperature 86 °F 76 °F 95 °F (1979)
Min Temperature 54 °F 46 °F 32 °F (1975)
Degree Days  
Heating Degree Days 0 5  
Month to date heating degree days 186 211  
Since 1 June heating degree days 186 211  
Since 1 July heating degree days 7452 8034  
Cooling Degree Days 5 1  
Month to date cooling degree days 12 10  
Year to date cooling degree days 12 13  
Since 1 June cooling degree days 12 10  
Growing Degree Days 20 (Base 50)    
Moisture  
Dew Point 56 °F    
Average Humidity 65    
Maximum Humidity 93    
Minimum Humidity 37    
Precipitation  
Precipitation T in 0.07 in 1.00 in (1963)
Month to date precipitation 2.71 2.49  
Year to date precipitation 9.01 9.10  
Snow  
Snow 0.00 in - - ()
Month to date snowfall 0.0  
Year to date snowfall 10.1  
Since 1 July snowfall 18.9  
Snow Depth 0.00 in    
Sea Level Pressure  
Sea Level Pressure 30.07 in    
Wind  
Wind Speed 5 mph (NNW)    
Max Wind Speed 14 mph    
Max Gust Speed 20 mph    
Visibility 10 miles    
Events      
T = Trace of Precipitation, MM = Missing Value Source: NWS Daily Summary

Daily Weather History Graph

Daily Weather History Graph

Search for Another Location

Airport or City:

Trip Planner

Search our weather history database for the weather conditions in past years. The results will help you decide how hot, cold, wet, or windy it might be!

Date:

Astronomy

Jun. 29, 2013 Rise Set
Actual Time 5:39 AM MDT 9:41 PM MDT
Civil Twilight 4:57 AM MDT 10:23 PM MDT
Nautical Twilight 3:59 AM MDT 11:21 PM MDT
Astronomical Twilight 2:17 AM MDT 1:01 AM MDT
Moon 12:38 AM MDT (6/29) 1:32 PM MDT (6/29)
Length of Visible Light 17h 25m
Length of Day
16h 02m
Waning Gibbous, 55% of the Moon is Illuminated
Jun 29
Waning Gibbous
Jun 29
Last Quarter
Jul 8
New
Jul 15
First Quarter
Jul 22
Full

Hourly Weather History & Observations

Time (MDT) Temp. Heat Index Dew Point Humidity Pressure Visibility Wind Dir Wind Speed Gust Speed Precip Events Conditions
12:55 AM 61.0 °F - 57.9 °F 90% 30.11 in 10.0 mi WNW 3.5 mph - N/A   Clear
1:55 AM 59.0 °F - 57.0 °F 93% 30.11 in 10.0 mi Calm Calm - N/A   Clear
2:55 AM 59.0 °F - 55.0 °F 87% 30.11 in 10.0 mi WNW 4.6 mph - N/A   Clear
3:55 AM 55.0 °F - 53.1 °F 93% 30.11 in 10.0 mi NW 3.5 mph - N/A   Clear
4:55 AM 55.9 °F - 53.1 °F 90% 30.11 in 10.0 mi NW 3.5 mph - N/A   Clear
5:55 AM 55.9 °F - 53.1 °F 90% 30.11 in 10.0 mi NNW 4.6 mph - N/A   Clear
6:55 AM 61.0 °F - 55.9 °F 83% 30.10 in 10.0 mi Calm Calm - N/A   Clear
7:55 AM 66.9 °F - 55.9 °F 68% 30.08 in 10.0 mi North 6.9 mph - N/A   Clear
8:55 AM 71.1 °F - 57.0 °F 61% 30.10 in 10.0 mi North 5.8 mph - N/A   Clear
9:55 AM 73.9 °F - 55.9 °F 53% 30.12 in 10.0 mi North 8.1 mph - N/A   Clear
10:55 AM 72.0 °F - 57.9 °F 61% 30.14 in 10.0 mi Calm Calm - N/A   Clear
11:55 AM 72.0 °F - 57.9 °F 61% 30.11 in 10.0 mi ENE 6.9 mph - N/A   Clear
12:55 PM 73.9 °F - 59.0 °F 59% 30.09 in 10.0 mi SSW 8.1 mph - N/A   Clear
1:55 PM 77.0 °F - 59.0 °F 54% 30.08 in 10.0 mi NNW 5.8 mph - N/A   Clear
2:55 PM 75.9 °F - 60.1 °F 58% 30.09 in 10.0 mi NNW 3.5 mph - N/A   Scattered Clouds
3:55 PM 81.0 °F 81.6 °F 60.1 °F 49% 30.06 in 10.0 mi North 10.4 mph 18.4 mph N/A   Clear
4:55 PM 84.0 °F 83.0 °F 55.9 °F 38% 30.03 in 10.0 mi NNW 6.9 mph 16.1 mph N/A   Clear
5:55 PM 82.0 °F 82.0 °F 57.9 °F 44% 30.02 in 10.0 mi WNW 11.5 mph - N/A   Clear
6:55 PM 84.0 °F 83.3 °F 57.0 °F 40% 30.00 in 10.0 mi WNW 11.5 mph - N/A   Clear
7:55 PM 79.0 °F - 53.1 °F 40% 29.98 in 10.0 mi WNW 11.5 mph - N/A   Clear
8:55 PM 71.1 °F - 55.0 °F 57% 29.97 in 10.0 mi NE 3.5 mph - N/A   Clear
9:55 PM 69.1 °F - 55.9 °F 63% 29.97 in 10.0 mi Calm Calm - 0.00 in   Partly Cloudy
10:55 PM 64.0 °F - 54.0 °F 70% 30.00 in 10.0 mi Calm Calm - N/A   Partly Cloudy
11:55 PM 64.9 °F - 53.1 °F 65% 29.99 in 10.0 mi Variable 3.5 mph - N/A   Clear